User: anonymous
Location: Ostrava
(49.8330°N, 18.2830°E)
Time: 02:21:09
(UTC+02:00)
Language:

Cosmos 1263 Rocket - Orbit

View from above orbital plane
View from above orbital plane
View from above satellite
View from above satellite

Ground track
Ground track

The orbit data is extracted from the following two-line orbital elements,

1 12389U 81033B   14273.49208333  .00067118  00000-0  87136-3 0  1013
2 12389 082.8741 005.6520 0188261 094.4522 328.8739 15.40328056725889
Epoch (UTC): 30 September 2014 11:48:36
Eccentricity: 0.0188261
inclination: 82.8741°
perigee height: 316 km
apogee height: 573 km
right ascension of ascending node: 5.6520°
argument of perigee: 94.4522°
revolutions per day: 15.40328056
mean anomaly at epoch: 328.8739°
orbit number at epoch: 72588

The dashed part of the orbit path shows where the satellite is in the earth's shadow,  

DLR